Flag for Tajikistan Weather past 2 weeks in Dushanbe, Tajikistan

Now
46 °F

Low clouds.


Feels Like: 45 °F
Forecast: 52 / 74 °F
Wind: 3 mph from Southeast

Location: Dushanbe Airport

Current Time: Apr 27, 2015 at 6:49:47 AM

Latest Report: Apr 27, 2015 at 6:30 AM


Visibility: N/A

Pressure: 30.36 "Hg

Humidity: 93%

Dew point: 45 °F

Location of DushanbeLocation

Historic Weather in Dushanbe — Graph

°F

Dushanbe temperature yesterday

Maximum temperature yesterday: 73 °F (at 12:30 AM)
Minimum temperature yesterday: 48 °F (at 12:00 PM)
Average temperature yesterday: 55 °F

Past Weeks' High & Low Weather Summary

 TemperatureHumidityPressure
High86 °F (Apr 25, 1:00 PM)100% (Apr 19, 5:30 AM)30.48 "Hg (Apr 19, 5:30 AM)
Low45 °F (Apr 17, 6:00 AM)16% (Apr 12, 3:30 PM)29.80 "Hg (Apr 19, 12:00 PM)
Average64 °F57%30.05 "Hg
* Reported Apr 12 5:00 AM — Apr 27 5:30 AM, Dushanbe, Weather by CustomWeather, © 2015

Note: Actual official high and low records may vary slightly from our data, if they occured in-between our weather recording intervals... More about our weather records

Advertising

Dushanbe weather history for previous 24 hours

 ConditionsComfort  
Time TempWeatherWind HumidityBarometerVisibility
5:30 AM
Mon, Apr 27
46 °FLow clouds.1 mph93%30.33 "HgN/A
5:00 AM45 °FFog.1 mph100%30.36 "Hg1 mi
4:30 AM45 °FPassing clouds.3 mph93%30.36 "HgN/A
4:00 AM45 °FPassing clouds.1 mph93%30.36 "HgN/A
3:30 AM45 °FPassing clouds.No wind100%30.36 "HgN/A
3:00 AM46 °FPassing clouds.No wind93%30.39 "HgN/A
2:30 AM46 °FPassing clouds.No wind100%30.39 "HgN/A
2:00 AM46 °FPassing clouds.3 mph93%30.42 "HgN/A
1:30 AM48 °FPartly cloudy.6 mph94%30.42 "HgN/A
1:00 AM48 °FSprinkles. Overcast.8 mph94%30.45 "HgN/A
12:30 AM48 °FSprinkles. Mostly cloudy.8 mph94%30.48 "HgN/A
12:00 AM48 °FSprinkles. Mostly cloudy.8 mph94%30.48 "HgN/A
11:30 PM
Sun, Apr 26
48 °FRain showers. Overcast.8 mph94%30.48 "Hg4 mi
11:00 PM48 °FRain showers. Mostly cloudy.8 mph94%30.48 "Hg6 mi
10:30 PM48 °FSprinkles. Mostly cloudy.10 mph94%30.48 "Hg4 mi
10:00 PM48 °FSprinkles. Mostly cloudy.8 mph94%30.48 "Hg5 mi
9:30 PM48 °FSprinkles. Overcast.10 mph94%30.48 "HgN/A
9:00 PM50 °FSprinkles. Mostly cloudy.10 mph88%30.45 "Hg5 mi
8:30 PM50 °FSprinkles. Mostly cloudy.8 mph88%30.42 "Hg5 mi
8:00 PM48 °FSprinkles. Mostly cloudy.10 mph94%30.42 "Hg6 mi
7:30 PM48 °FSprinkles. Mostly cloudy.8 mph100%30.39 "Hg4 mi
7:00 PM50 °FSprinkles. Mostly cloudy.6 mph94%30.39 "Hg3 mi
6:30 PM48 °FSprinkles. Mostly cloudy.3 mph94%30.36 "Hg4 mi
6:00 PM48 °FSprinkles. More clouds than sun.1 mph100%30.33 "Hg4 mi
5:30 PM48 °FSprinkles. Fog.1 mph100%30.33 "Hg3 mi
5:00 PM48 °FSprinkles. Cloudy.3 mph100%30.30 "Hg4 mi
4:30 PM48 °FSprinkles. Fog.3 mph100%30.27 "Hg2 mi
4:00 PM50 °FSprinkles. Fog.3 mph94%30.27 "Hg2 mi
3:30 PM50 °FSprinkles. Fog.6 mph94%30.24 "Hg2 mi
3:00 PM48 °FSprinkles. Mostly cloudy.6 mph94%30.24 "Hg4 mi
2:30 PM48 °FSprinkles. Mostly cloudy.6 mph94%30.21 "Hg4 mi
2:00 PM48 °FRain showers. Fog.8 mph94%30.21 "Hg3 mi
1:30 PM48 °FRain showers. Fog.13 mph94%30.18 "Hg2 mi
1:00 PM50 °FSprinkles. Cloudy.8 mph94%30.15 "Hg4 mi
12:30 PM50 °FSprinkles. More clouds than sun.13 mph88%30.15 "Hg5 mi
12:00 PM48 °FRain showers. More clouds than sun.15 mph94%30.12 "Hg4 mi
11:30 AM50 °FSprinkles. Cloudy.20 mph94%30.15 "Hg4 mi
11:00 AM52 °FRain showers. Fog.13 mph100%30.09 "Hg2 mi
10:30 AM54 °FSprinkles. Mostly cloudy.13 mph94%30.09 "Hg4 mi
10:00 AM54 °FRain showers. Fog.10 mph94%30.09 "Hg2 mi
9:30 AM55 °FSprinkles. Fog.10 mph94%30.07 "Hg1 mi
9:00 AM55 °FSprinkles. Fog.8 mph88%30.04 "Hg2 mi
8:30 AM55 °FSprinkles. Fog.13 mph88%30.04 "Hg2 mi
8:00 AM55 °FRain showers. Fog.15 mph88%30.07 "Hg1 mi
7:30 AM57 °FSprinkles. Fog.15 mph82%30.01 "Hg1 mi
7:00 AM59 °FRain showers. Fog.13 mph82%30.01 "Hg1 mi
6:30 AM63 °FSprinkles. More clouds than sun.15 mph68%29.98 "Hg1 mi
6:00 AM66 °FSprinkles. More clouds than sun.8 mph56%29.89 "Hg2 mi
Weather by CustomWeather, © 2015

See weather overviewHow to use our weather pages